• In Belarus
  • List of Countries
  • For 7 days
  • Water Temperature
  • Satellite Maps
  • Weather Map
  • Weather Widgets
  • user-avatar
    Login

    Hourly Weather La Paz

    Today, 24 February, Saturday

    Time Temperature Precipitation Wind Pressure Humidity
    00:00 +20°C° 0 mm 1 mps 700 mmHg 94%
    01:00 +19°C° 0 mm 1 mps 700 mmHg 95%
    02:00 +19°C° 0 mm 1 mps 700 mmHg 95%
    03:00 +19°C° 0 mm 1 mps 699 mmHg 96%
    04:00 +19°C° 0 mm 1 mps 700 mmHg 96%
    05:00 +18°C° 0 mm 1 mps 700 mmHg 96%
    06:00 +18°C° 0 mm 1 mps 700 mmHg 96%
    07:00 +20°C° 0 mm 1 mps 700 mmHg 81%
    08:00 +23°C° 0 mm 1 mps 701 mmHg 67%
    09:00 +26°C° 0 mm 1 mps 702 mmHg 53%
    10:00 +28°C° 0 mm 2 mps 702 mmHg 45%
    11:00 +30°C° 0 mm 2 mps 701 mmHg 37%
    12:00 +32°C° 0 mm 2 mps 701 mmHg 30%
    13:00 +32°C° 0 mm 2 mps 701 mmHg 29%
    14:00 +32°C° 0 mm 2 mps 700 mmHg 28%
    15:00 +34°C° 0 mm 2 mps 699 mmHg 27%
    16:00 +30°C° 0 mm 2 mps 699 mmHg 33%
    17:00 +28°C° 0 mm 2 mps 699 mmHg 39%
    18:00 +26°C° 0 mm 1 mps 699 mmHg 46%
    19:00 +25°C° 0 mm 1 mps 699 mmHg 54%
    20:00 +23°C° 0 mm 1 mps 700 mmHg 63%
    21:00 +22°C° 0 mm 1 mps 700 mmHg 71%
    22:00 +21°C° 0 mm 1 mps 700 mmHg 75%
    23:00 +21°C° 0 mm 1 mps 700 mmHg 79%

    Tomorrow, 25 February, Sunday

    Time Temperature Precipitation Wind Pressure Humidity
    00:00 +20°C° 0 mm 1 mps 700 mmHg 83%
    01:00 +20°C° 0 mm 1 mps 700 mmHg 85%
    02:00 +19°C° 0 mm 1 mps 699 mmHg 87%
    03:00 +19°C° 0 mm 1 mps 699 mmHg 89%
    04:00 +18°C° 0 mm 1 mps 699 mmHg 90%
    05:00 +18°C° 0 mm 1 mps 699 mmHg 91%
    06:00 +18°C° 0 mm 1 mps 700 mmHg 91%
    07:00 +21°C° 0 mm 1 mps 700 mmHg 78%
    08:00 +24°C° 0 mm 1 mps 701 mmHg 64%
    09:00 +27°C° 0 mm 1 mps 702 mmHg 51%
    10:00 +29°C° 0 mm 1 mps 702 mmHg 43%
    11:00 +31°C° 0 mm 2 mps 702 mmHg 35%
    12:00 +34°C° 0 mm 2 mps 701 mmHg 27%
    13:00 +34°C° 0 mm 2 mps 700 mmHg 27%
    14:00 +32°C° 0 mm 2 mps 700 mmHg 27%
    15:00 +32°C° 0 mm 2 mps 699 mmHg 27%
    16:00 +30°C° 0 mm 1 mps 699 mmHg 32%
    17:00 +28°C° 0 mm 1 mps 699 mmHg 37%
    18:00 +26°C° 0 mm 1 mps 699 mmHg 42%
    19:00 +25°C° 0 mm 1 mps 700 mmHg 49%
    20:00 +23°C° 0 mm 1 mps 700 mmHg 56%
    21:00 +20°C° 0 mm 0 mps 701 mmHg 62%
    22:00 +21°C° 0 mm 1 mps 701 mmHg 66%
    23:00 +21°C° 0 mm 1 mps 700 mmHg 69%

    Day after tomorrow, 26 February, Monday

    Time Temperature Precipitation Wind Pressure Humidity
    00:00 +20°C° 0 mm 1 mps 700 mmHg 73%
    01:00 +20°C° 0 mm 1 mps 700 mmHg 76%
    02:00 +19°C° 0 mm 1 mps 700 mmHg 79%
    03:00 +19°C° 0 mm 1 mps 699 mmHg 82%
    04:00 +19°C° 0 mm 1 mps 700 mmHg 83%
    05:00 +18°C° 0 mm 1 mps 700 mmHg 85%
    06:00 +18°C° 0 mm 1 mps 700 mmHg 87%
    07:00 +21°C° 0 mm 1 mps 701 mmHg 75%
    08:00 +24°C° 0 mm 1 mps 702 mmHg 63%
    09:00 +27°C° 0 mm 1 mps 703 mmHg 51%
    10:00 +29°C° 0 mm 2 mps 703 mmHg 41%
    11:00 +31°C° 0 mm 2 mps 702 mmHg 32%
    12:00 +34°C° 0 mm 2 mps 702 mmHg 22%
    13:00 +34°C° 0 mm 2 mps 701 mmHg 22%
    14:00 +34°C° 0 mm 3 mps 700 mmHg 22%
    15:00 +34°C° 0 mm 3 mps 699 mmHg 22%
    16:00 +31°C° 0 mm 2 mps 699 mmHg 29%
    17:00 +28°C° 0 mm 2 mps 699 mmHg 36%
    18:00 +26°C° 0 mm 2 mps 699 mmHg 42%
    19:00 +24°C° 0 mm 1 mps 700 mmHg 51%
    20:00 +23°C° 0 mm 1 mps 700 mmHg 59%
    21:00 +21°C° 0 mm 1 mps 701 mmHg 67%
    22:00 +21°C° 0 mm 1 mps 701 mmHg 73%
    23:00 +20°C° 0 mm 1 mps 701 mmHg 79%

    27 February, Tuesday

    Time Temperature Precipitation Wind Pressure Humidity
    00:00 +20°C° 0 mm 1 mps 700 mmHg 85%
    01:00 +19°C° 0 mm 1 mps 700 mmHg 88%
    02:00 +19°C° 0 mm 1 mps 700 mmHg 91%
    03:00 +19°C° 0 mm 1 mps 699 mmHg 94%
    04:00 +19°C° 0 mm 1 mps 700 mmHg 94%
    05:00 +19°C° 0 mm 1 mps 700 mmHg 94%
    06:00 +19°C° 0 mm 1 mps 700 mmHg 94%
    07:00 +21°C° 0 mm 1 mps 701 mmHg 82%
    08:00 +24°C° 0 mm 2 mps 702 mmHg 70%
    09:00 +26°C° 0 mm 2 mps 703 mmHg 58%
    10:00 +28°C° 0 mm 2 mps 702 mmHg 50%
    11:00 +30°C° 0 mm 2 mps 702 mmHg 42%
    12:00 +31°C° 0 mm 3 mps 702 mmHg 33%
    13:00 +33°C° 0 mm 3 mps 701 mmHg 33%
    14:00 +33°C° 0 mm 3 mps 700 mmHg 32%
    15:00 +33°C° 0 mm 3 mps 699 mmHg 31%
    16:00 +30°C° 0 mm 2 mps 699 mmHg 38%
    17:00 +28°C° 0 mm 2 mps 699 mmHg 45%
    18:00 +26°C° 0 mm 2 mps 699 mmHg 51%
    19:00 +24°C° 0 mm 2 mps 699 mmHg 61%
    20:00 +23°C° 0 mm 1 mps 700 mmHg 70%
    21:00 +21°C° 0 mm 1 mps 700 mmHg 80%
    22:00 +21°C° 0 mm 1 mps 700 mmHg 84%
    23:00 +20°C° 0 mm 1 mps 700 mmHg 88%

    28 February, Wednesday

    Time Temperature Precipitation Wind Pressure Humidity
    00:00 +20°C° 0 mm 1 mps 700 mmHg 92%
    01:00 +19°C° 0 mm 1 mps 699 mmHg 93%
    02:00 +19°C° 0 mm 1 mps 699 mmHg 94%
    03:00 +19°C° 0 mm 1 mps 699 mmHg 95%
    04:00 +19°C° 0 mm 1 mps 699 mmHg 95%
    05:00 +19°C° 0 mm 1 mps 699 mmHg 95%
    06:00 +18°C° 0 mm 1 mps 699 mmHg 96%
    07:00 +21°C° 0 mm 1 mps 700 mmHg 81%
    08:00 +24°C° 0 mm 1 mps 700 mmHg 66%
    09:00 +27°C° 0 mm 1 mps 701 mmHg 52%
    10:00 +29°C° 0 mm 1 mps 701 mmHg 43%
    11:00 +31°C° 0 mm 1 mps 700 mmHg 34%
    12:00 +34°C° 0 mm 2 mps 700 mmHg 24%
    13:00 +35°C° 0 mm 2 mps 699 mmHg 23%
    14:00 +35°C° 0 mm 2 mps 698 mmHg 22%
    15:00 +35°C° 0 mm 2 mps 698 mmHg 21%
    16:00 +31°C° 0 mm 2 mps 698 mmHg 27%
    17:00 +29°C° 0 mm 2 mps 698 mmHg 33%
    18:00 +26°C° 0 mm 1 mps 698 mmHg 39%
    19:00 +25°C° 0 mm 1 mps 698 mmHg 48%
    20:00 +23°C° 0 mm 1 mps 698 mmHg 56%
    21:00 +20°C° 0 mm 0 mps 699 mmHg 65%
    22:00 +21°C° 0 mm 1 mps 699 mmHg 67%
    23:00 +21°C° 0 mm 1 mps 699 mmHg 68%

    1 March, Thursday

    Time Temperature Precipitation Wind Pressure Humidity
    00:00 +21°C° 0 mm 1 mps 699 mmHg 70%
    01:00 +20°C° 0 mm 1 mps 698 mmHg 73%
    02:00 +20°C° 0 mm 1 mps 698 mmHg 76%
    03:00 +19°C° 0 mm 1 mps 698 mmHg 78%
    04:00 +19°C° 0 mm 1 mps 698 mmHg 81%
    05:00 +19°C° 0 mm 1 mps 698 mmHg 83%
    06:00 +19°C° 0 mm 1 mps 699 mmHg 85%
    07:00 +22°C° 0 mm 1 mps 699 mmHg 73%
    08:00 +25°C° 0 mm 1 mps 700 mmHg 61%
    09:00 +29°C° 0 mm 1 mps 701 mmHg 48%
    10:00 +31°C° 0 mm 1 mps 701 mmHg 40%
    11:00 +33°C° 0 mm 1 mps 701 mmHg 32%
    12:00 +36°C° 0 mm 2 mps 700 mmHg 23%
    13:00 +36°C° 0 mm 2 mps 700 mmHg 22%
    14:00 +35°C° 0 mm 2 mps 699 mmHg 21%
    15:00 +35°C° 0 mm 2 mps 698 mmHg 20%
    16:00 +32°C° 0 mm 2 mps 698 mmHg 26%
    17:00 +29°C° 0 mm 2 mps 698 mmHg 33%
    18:00 +27°C° 0 mm 1 mps 698 mmHg 39%
    19:00 +25°C° 0 mm 1 mps 699 mmHg 49%
    20:00 +23°C° 0 mm 1 mps 699 mmHg 59%
    21:00 +22°C° 0 mm 1 mps 700 mmHg 69%
    22:00 +21°C° 0 mm 1 mps 700 mmHg 74%
    23:00 +21°C° 0 mm 1 mps 700 mmHg 79%
    Show more